Year,Month,Day,Hour,Minute,Value (Times are PST for temperature in C)
2009,07,24,00,00,13.70
2009,07,24,00,01,13.80
2009,07,24,00,02,13.80
2009,07,24,00,03,13.80
2009,07,24,00,04,13.80
2009,07,24,00,05,13.80
2009,07,24,00,06,13.80
2009,07,24,00,07,13.90
2009,07,24,00,08,13.90
2009,07,24,00,09,13.90
2009,07,24,00,10,13.90
2009,07,24,00,11,13.90
2009,07,24,00,12,13.90
2009,07,24,00,13,13.90
2009,07,24,00,14,13.90
2009,07,24,00,15,14.00
2009,07,24,00,16,14.00
2009,07,24,00,17,14.00
2009,07,24,00,18,14.00
2009,07,24,00,19,14.00
2009,07,24,00,20,14.00
2009,07,24,00,21,14.10
2009,07,24,00,22,14.10
2009,07,24,00,23,14.10
2009,07,24,00,24,14.10
2009,07,24,00,25,14.10
2009,07,24,00,26,14.10
2009,07,24,00,27,14.10
2009,07,24,00,28,14.10
2009,07,24,00,29,14.10
2009,07,24,00,30,14.10
2009,07,24,00,31,14.20
2009,07,24,00,32,14.20
2009,07,24,00,33,14.20
2009,07,24,00,34,14.20
2009,07,24,00,35,14.20
2009,07,24,00,36,14.20
2009,07,24,00,37,14.20
2009,07,24,00,38,14.20
2009,07,24,00,39,14.20
2009,07,24,00,40,14.20
2009,07,24,00,41,14.20
2009,07,24,00,42,14.20
2009,07,24,00,43,14.20
2009,07,24,00,44,14.20
2009,07,24,00,45,14.20
2009,07,24,00,46,14.20
2009,07,24,00,47,14.20
2009,07,24,00,48,14.20
2009,07,24,00,49,14.20
2009,07,24,00,50,14.20
2009,07,24,00,51,14.20
2009,07,24,00,52,14.20
2009,07,24,00,53,14.20
2009,07,24,00,54,14.20
2009,07,24,00,55,14.20
2009,07,24,00,56,14.20
2009,07,24,00,57,14.20
2009,07,24,00,58,14.20
2009,07,24,00,59,14.20
2009,07,24,01,00,14.20
2009,07,24,01,01,14.20
2009,07,24,01,02,14.20
2009,07,24,01,03,14.20
2009,07,24,01,04,14.20
2009,07,24,01,05,14.20
2009,07,24,01,06,14.20
2009,07,24,01,07,14.20
2009,07,24,01,08,14.20
2009,07,24,01,09,14.20
2009,07,24,01,10,14.20
2009,07,24,01,11,14.20
2009,07,24,01,12,14.20
2009,07,24,01,13,14.20
2009,07,24,01,14,14.20
2009,07,24,01,15,14.20
2009,07,24,01,16,14.20
2009,07,24,01,17,14.10
2009,07,24,01,18,14.10
2009,07,24,01,19,14.10
2009,07,24,01,20,14.10
2009,07,24,01,21,14.10
2009,07,24,01,22,14.10
2009,07,24,01,23,14.00
2009,07,24,01,24,14.00
2009,07,24,01,25,13.90
2009,07,24,01,26,13.90
2009,07,24,01,27,13.90
2009,07,24,01,28,13.90
2009,07,24,01,29,13.90
2009,07,24,01,30,13.80
2009,07,24,01,31,13.80
2009,07,24,01,32,13.80
2009,07,24,01,33,13.80
2009,07,24,01,34,13.70
2009,07,24,01,35,13.70
2009,07,24,01,36,13.70
2009,07,24,01,37,13.70
2009,07,24,01,38,13.70
2009,07,24,01,39,13.70
2009,07,24,01,40,13.60
2009,07,24,01,41,13.60
2009,07,24,01,42,13.60
2009,07,24,01,43,13.60
2009,07,24,01,44,13.60
2009,07,24,01,45,13.60
2009,07,24,01,46,13.60
2009,07,24,01,47,13.60
2009,07,24,01,48,13.60
2009,07,24,01,49,13.60
2009,07,24,01,50,13.70
2009,07,24,01,51,13.70
2009,07,24,01,52,13.70
2009,07,24,01,53,13.70
2009,07,24,01,54,13.80
2009,07,24,01,55,13.80
2009,07,24,01,56,13.80
2009,07,24,01,57,13.80
2009,07,24,01,58,13.80
2009,07,24,01,59,13.80
2009,07,24,02,00,13.80
2009,07,24,02,01,13.80
2009,07,24,02,02,13.80
2009,07,24,02,03,13.80
2009,07,24,02,04,13.80
2009,07,24,02,05,13.80
2009,07,24,02,06,13.80
2009,07,24,02,07,13.80
2009,07,24,02,08,13.80
2009,07,24,02,09,13.80
2009,07,24,02,10,13.80
2009,07,24,02,11,13.80
2009,07,24,02,12,13.70
2009,07,24,02,13,13.70
2009,07,24,02,14,13.70
2009,07,24,02,15,13.70
2009,07,24,02,16,13.60
2009,07,24,02,17,13.60
2009,07,24,02,18,13.60
2009,07,24,02,19,13.60
2009,07,24,02,20,13.50
2009,07,24,02,21,13.50
2009,07,24,02,22,13.40
2009,07,24,02,23,13.40
2009,07,24,02,24,13.40
2009,07,24,02,25,13.40
2009,07,24,02,26,13.40
2009,07,24,02,27,13.30
2009,07,24,02,28,13.30
2009,07,24,02,29,13.30
2009,07,24,02,30,13.30
2009,07,24,02,31,13.30
2009,07,24,02,32,13.20
2009,07,24,02,33,13.20
2009,07,24,02,34,13.20
2009,07,24,02,35,13.20
2009,07,24,02,36,13.20
2009,07,24,02,37,13.20
2009,07,24,02,38,13.20
2009,07,24,02,39,13.20
2009,07,24,02,40,13.20
2009,07,24,02,41,13.20
2009,07,24,02,42,13.20
2009,07,24,02,43,13.10
2009,07,24,02,44,13.10
2009,07,24,02,45,13.10
2009,07,24,02,46,13.10
2009,07,24,02,47,13.10
2009,07,24,02,48,13.10
2009,07,24,02,49,13.10
2009,07,24,02,50,13.10
2009,07,24,02,51,13.10
2009,07,24,02,52,13.10
2009,07,24,02,53,13.10
2009,07,24,02,54,13.10
2009,07,24,02,55,13.10
2009,07,24,02,56,13.00
2009,07,24,02,57,13.00
2009,07,24,02,58,13.00
2009,07,24,02,59,13.00
2009,07,24,03,00,13.00
2009,07,24,03,01,12.90
2009,07,24,03,02,12.90
2009,07,24,03,03,12.90
2009,07,24,03,04,12.90
2009,07,24,03,05,12.80
2009,07,24,03,06,12.80
2009,07,24,03,07,12.70
2009,07,24,03,08,12.70
2009,07,24,03,09,12.70
2009,07,24,03,10,12.60
2009,07,24,03,11,12.60
2009,07,24,03,12,12.60
2009,07,24,03,13,12.50
2009,07,24,03,14,12.50
2009,07,24,03,15,12.50
2009,07,24,03,16,12.40
2009,07,24,03,17,12.40
2009,07,24,03,18,12.30
2009,07,24,03,19,12.30
2009,07,24,03,20,12.30
2009,07,24,03,21,12.30
2009,07,24,03,22,12.30
2009,07,24,03,23,12.30
2009,07,24,03,24,12.20
2009,07,24,03,25,12.20
2009,07,24,03,26,12.20
2009,07,24,03,27,12.20
2009,07,24,03,28,12.20
2009,07,24,03,29,12.10
2009,07,24,03,30,12.10
2009,07,24,03,31,12.10
2009,07,24,03,32,12.10
2009,07,24,03,33,12.10
2009,07,24,03,34,12.10
2009,07,24,03,35,12.00
2009,07,24,03,36,12.00
2009,07,24,03,37,12.00
2009,07,24,03,38,11.90
2009,07,24,03,39,11.90
2009,07,24,03,40,11.90
2009,07,24,03,41,11.90
2009,07,24,03,42,11.90
2009,07,24,03,43,11.90
2009,07,24,03,44,11.80
2009,07,24,03,45,11.80
2009,07,24,03,46,11.80
2009,07,24,03,47,11.80
2009,07,24,03,48,11.80
2009,07,24,03,49,11.80
2009,07,24,03,50,11.80
2009,07,24,03,51,11.70
2009,07,24,03,52,11.70
2009,07,24,03,53,11.70
2009,07,24,03,54,11.70
2009,07,24,03,55,11.70
2009,07,24,03,56,11.70
2009,07,24,03,57,11.70
2009,07,24,03,58,11.60
2009,07,24,03,59,11.60
2009,07,24,04,00,11.60
2009,07,24,04,01,11.60
2009,07,24,04,02,11.60
2009,07,24,04,03,11.60
2009,07,24,04,04,11.60
2009,07,24,04,05,11.60
2009,07,24,04,06,11.60
2009,07,24,04,07,11.60
2009,07,24,04,08,11.60
2009,07,24,04,09,11.60
2009,07,24,04,10,11.60
2009,07,24,04,11,11.60
2009,07,24,04,12,11.60
2009,07,24,04,13,11.60
2009,07,24,04,14,11.50
2009,07,24,04,15,11.50
2009,07,24,04,16,11.50
2009,07,24,04,17,11.50
2009,07,24,04,18,11.50
2009,07,24,04,19,11.50
2009,07,24,04,20,11.50
2009,07,24,04,21,11.50
2009,07,24,04,22,11.50
2009,07,24,04,23,11.50
2009,07,24,04,24,11.50
2009,07,24,04,25,11.50
2009,07,24,04,26,11.50
2009,07,24,04,27,11.40
2009,07,24,04,28,11.40
2009,07,24,04,29,11.40
2009,07,24,04,30,11.40
2009,07,24,04,31,11.40
2009,07,24,04,32,11.40
2009,07,24,04,33,11.40
2009,07,24,04,34,11.30
2009,07,24,04,35,11.30
2009,07,24,04,36,11.30
2009,07,24,04,37,11.30
2009,07,24,04,38,11.30
2009,07,24,04,39,11.30
2009,07,24,04,40,11.20
2009,07,24,04,41,11.20
2009,07,24,04,42,11.20
2009,07,24,04,43,11.20
2009,07,24,04,44,11.20
2009,07,24,04,45,11.20
2009,07,24,04,46,11.20
2009,07,24,04,47,11.20
2009,07,24,04,48,11.10
2009,07,24,04,49,11.10
2009,07,24,04,50,11.10
2009,07,24,04,51,11.10
2009,07,24,04,52,11.10
2009,07,24,04,53,11.00
2009,07,24,04,54,11.00
2009,07,24,04,55,11.00
2009,07,24,04,56,11.00
2009,07,24,04,57,10.90
2009,07,24,04,58,10.90
2009,07,24,04,59,10.90
2009,07,24,05,00,10.90
2009,07,24,05,01,10.90
2009,07,24,05,02,10.90
2009,07,24,05,03,10.90
2009,07,24,05,04,10.90
2009,07,24,05,05,10.90
2009,07,24,05,06,10.90
2009,07,24,05,07,10.90
2009,07,24,05,08,10.90
2009,07,24,05,09,10.90
2009,07,24,05,10,10.90
2009,07,24,05,11,10.90
2009,07,24,05,12,10.90
2009,07,24,05,13,10.90
2009,07,24,05,14,10.90
2009,07,24,05,15,10.90
2009,07,24,05,16,10.90
2009,07,24,05,17,10.90
2009,07,24,05,18,10.90
2009,07,24,05,19,10.90
2009,07,24,05,20,10.90
2009,07,24,05,21,10.90
2009,07,24,05,22,10.90
2009,07,24,05,23,10.90
2009,07,24,05,24,10.90
2009,07,24,05,25,10.90
2009,07,24,05,26,10.90
2009,07,24,05,27,10.90
2009,07,24,05,28,10.90
2009,07,24,05,29,10.90
2009,07,24,05,30,10.90
2009,07,24,05,31,10.90
2009,07,24,05,32,10.90
2009,07,24,05,33,10.90
2009,07,24,05,34,10.90
2009,07,24,05,35,10.80
2009,07,24,05,36,10.80
2009,07,24,05,37,10.90
2009,07,24,05,38,10.90
2009,07,24,05,39,10.90
2009,07,24,05,40,10.90
2009,07,24,05,41,10.90
2009,07,24,05,42,10.90
2009,07,24,05,43,10.90
2009,07,24,05,44,10.90
2009,07,24,05,45,10.90
2009,07,24,05,46,10.90
2009,07,24,05,47,10.90
2009,07,24,05,48,10.90
2009,07,24,05,49,10.90
2009,07,24,05,50,11.00
2009,07,24,05,51,11.00
2009,07,24,05,52,11.00
2009,07,24,05,53,11.00
2009,07,24,05,54,11.00
2009,07,24,05,55,11.00
2009,07,24,05,56,11.10
2009,07,24,05,57,11.10
2009,07,24,05,58,11.10
2009,07,24,05,59,11.10
2009,07,24,06,00,11.10
2009,07,24,06,01,11.10
2009,07,24,06,02,11.20
2009,07,24,06,03,11.20
2009,07,24,06,04,11.20
2009,07,24,06,05,11.20
2009,07,24,06,06,11.20
2009,07,24,06,07,11.30
2009,07,24,06,08,11.30
2009,07,24,06,09,11.30
2009,07,24,06,10,11.40
2009,07,24,06,11,11.40
2009,07,24,06,12,11.40
2009,07,24,06,13,11.50
2009,07,24,06,14,11.50
2009,07,24,06,15,11.50
2009,07,24,06,16,11.50
2009,07,24,06,17,11.50
2009,07,24,06,18,11.50
2009,07,24,06,19,11.50
2009,07,24,06,20,11.60
2009,07,24,06,21,11.60
2009,07,24,06,22,11.60
2009,07,24,06,23,11.60
2009,07,24,06,24,11.60
2009,07,24,06,25,11.70
2009,07,24,06,26,11.70
2009,07,24,06,27,11.70
2009,07,24,06,28,11.70
2009,07,24,06,29,11.80
2009,07,24,06,30,11.80
2009,07,24,06,31,11.80
2009,07,24,06,32,11.90
2009,07,24,06,33,11.90
2009,07,24,06,34,11.90
2009,07,24,06,35,11.90
2009,07,24,06,36,12.00
2009,07,24,06,37,12.10
2009,07,24,06,38,12.10
2009,07,24,06,39,12.10
2009,07,24,06,40,12.10
2009,07,24,06,41,12.20
2009,07,24,06,42,12.20
2009,07,24,06,43,12.20
2009,07,24,06,44,12.30
2009,07,24,06,45,12.30
2009,07,24,06,46,12.30
2009,07,24,06,47,12.40
2009,07,24,06,48,12.40
2009,07,24,06,49,12.40
2009,07,24,06,50,12.50
2009,07,24,06,51,12.50
2009,07,24,06,52,12.60
2009,07,24,06,53,12.60
2009,07,24,06,54,12.70
2009,07,24,06,55,12.70
2009,07,24,06,56,12.70
2009,07,24,06,57,12.80
2009,07,24,06,58,12.80
2009,07,24,06,59,12.90
2009,07,24,07,00,12.90
2009,07,24,07,01,12.90
2009,07,24,07,02,13.00
2009,07,24,07,03,13.10
2009,07,24,07,04,13.10
2009,07,24,07,05,13.10
2009,07,24,07,06,13.20
2009,07,24,07,07,13.20
2009,07,24,07,08,13.30
2009,07,24,07,09,13.30
2009,07,24,07,10,13.40
2009,07,24,07,11,13.40
2009,07,24,07,12,13.50
2009,07,24,07,13,13.50
2009,07,24,07,14,13.60
2009,07,24,07,15,13.60
2009,07,24,07,16,13.60
2009,07,24,07,17,13.60
2009,07,24,07,18,13.60
2009,07,24,07,19,13.70
2009,07,24,07,20,13.70
2009,07,24,07,21,13.70
2009,07,24,07,22,13.80
2009,07,24,07,23,13.80
2009,07,24,07,24,13.80
2009,07,24,07,25,13.80
2009,07,24,07,26,13.70
2009,07,24,07,27,13.70
2009,07,24,07,28,13.70
2009,07,24,07,29,13.70
2009,07,24,07,30,13.70
2009,07,24,07,31,13.70
2009,07,24,07,32,13.70
2009,07,24,07,33,13.70
2009,07,24,07,34,13.70
2009,07,24,07,35,13.70
2009,07,24,07,36,13.70
2009,07,24,07,37,13.70
2009,07,24,07,38,13.70
2009,07,24,07,39,13.70
2009,07,24,07,40,13.70
2009,07,24,07,41,13.80
2009,07,24,07,42,13.80
2009,07,24,07,43,13.80
2009,07,24,07,44,13.80
2009,07,24,07,45,13.90
2009,07,24,07,46,14.00
2009,07,24,07,47,14.00
2009,07,24,07,48,14.10
2009,07,24,07,49,14.20
2009,07,24,07,50,14.30
2009,07,24,07,51,14.40
2009,07,24,07,52,14.50
2009,07,24,07,53,14.60
2009,07,24,07,54,14.70
2009,07,24,07,55,14.80
2009,07,24,07,56,14.90
2009,07,24,07,57,15.00
2009,07,24,07,58,15.00
2009,07,24,07,59,15.00
2009,07,24,08,00,15.00
2009,07,24,08,01,15.00
2009,07,24,08,02,15.10
2009,07,24,08,03,15.20
2009,07,24,08,04,15.20
2009,07,24,08,05,15.30
2009,07,24,08,06,15.30
2009,07,24,08,07,15.30
2009,07,24,08,08,15.40
2009,07,24,08,09,15.50
2009,07,24,08,10,15.60
2009,07,24,08,11,15.60
2009,07,24,08,12,15.70
2009,07,24,08,13,15.80
2009,07,24,08,14,15.80
2009,07,24,08,15,15.80
2009,07,24,08,16,15.80
2009,07,24,08,17,15.90
2009,07,24,08,18,15.90
2009,07,24,08,19,16.00
2009,07,24,08,20,16.00
2009,07,24,08,21,16.10
2009,07,24,08,22,16.10
2009,07,24,08,23,16.10
2009,07,24,08,24,16.20
2009,07,24,08,25,16.30
2009,07,24,08,26,16.30
2009,07,24,08,27,16.40
2009,07,24,08,28,16.40
2009,07,24,08,29,16.40
2009,07,24,08,30,16.40
2009,07,24,08,31,16.40
2009,07,24,08,32,16.50
2009,07,24,08,33,16.60
2009,07,24,08,34,16.60
2009,07,24,08,35,16.60
2009,07,24,08,36,16.60
2009,07,24,08,37,16.70
2009,07,24,08,38,16.70
2009,07,24,08,39,16.70
2009,07,24,08,40,16.70
2009,07,24,08,41,16.80
2009,07,24,08,42,16.80
2009,07,24,08,43,16.90
2009,07,24,08,44,17.00
2009,07,24,08,45,17.10
2009,07,24,08,46,17.10
2009,07,24,08,47,17.00
2009,07,24,08,48,16.80
2009,07,24,08,49,16.60
2009,07,24,08,50,16.40
2009,07,24,08,51,16.30
2009,07,24,08,52,16.10
2009,07,24,08,53,15.90
2009,07,24,08,54,15.70
2009,07,24,08,55,15.30
2009,07,24,08,56,15.00
2009,07,24,08,57,14.90
2009,07,24,08,58,14.80
2009,07,24,08,59,14.60
2009,07,24,09,00,14.50
2009,07,24,09,01,14.40
2009,07,24,09,02,14.30
2009,07,24,09,03,14.30
2009,07,24,09,04,14.30
2009,07,24,09,05,14.30
2009,07,24,09,06,14.30
2009,07,24,09,07,14.30
2009,07,24,09,08,14.30
2009,07,24,09,09,14.30
2009,07,24,09,10,14.30
2009,07,24,09,11,14.30
2009,07,24,09,12,14.30
2009,07,24,09,13,14.40
2009,07,24,09,14,14.50
2009,07,24,09,15,14.50
2009,07,24,09,16,14.60
2009,07,24,09,17,14.60
2009,07,24,09,18,14.60
2009,07,24,09,19,14.60
2009,07,24,09,20,14.70
2009,07,24,09,21,14.80
2009,07,24,09,22,15.00
2009,07,24,09,23,15.00
2009,07,24,09,24,15.00
2009,07,24,09,25,15.10
2009,07,24,09,26,15.30
2009,07,24,09,27,15.30
2009,07,24,09,28,15.40
2009,07,24,09,29,15.40
2009,07,24,09,30,15.40
2009,07,24,09,31,15.40
2009,07,24,09,32,15.50
2009,07,24,09,33,15.60
2009,07,24,09,34,15.70
2009,07,24,09,35,15.80
2009,07,24,09,36,15.90
2009,07,24,09,37,16.00
2009,07,24,09,38,16.10
2009,07,24,09,39,16.10
2009,07,24,09,40,16.20
2009,07,24,09,41,16.30
2009,07,24,09,42,16.50
2009,07,24,09,43,16.60
2009,07,24,09,44,16.80
2009,07,24,09,45,16.70
2009,07,24,09,46,16.70
2009,07,24,09,47,16.80
2009,07,24,09,48,16.70
2009,07,24,09,49,16.50
2009,07,24,09,50,16.30
2009,07,24,09,51,16.10
2009,07,24,09,52,16.00
2009,07,24,09,53,16.00
2009,07,24,09,54,16.10
2009,07,24,09,55,16.20
2009,07,24,09,56,16.10
2009,07,24,09,57,16.10
2009,07,24,09,58,16.00
2009,07,24,09,59,15.90
2009,07,24,10,00,15.80
2009,07,24,10,01,15.70
2009,07,24,10,02,15.70
2009,07,24,10,03,15.70
2009,07,24,10,04,15.60
2009,07,24,10,05,15.50
2009,07,24,10,06,15.40
2009,07,24,10,07,15.40
2009,07,24,10,08,15.40
2009,07,24,10,09,15.30
2009,07,24,10,10,15.20
2009,07,24,10,11,15.20
2009,07,24,10,12,15.20
2009,07,24,10,13,15.10
2009,07,24,10,14,15.00
2009,07,24,10,15,15.00
2009,07,24,10,16,15.00
2009,07,24,10,17,15.00
2009,07,24,10,18,14.80
2009,07,24,10,19,14.70
2009,07,24,10,20,14.70
2009,07,24,10,21,14.70
2009,07,24,10,22,14.80
2009,07,24,10,23,14.90
2009,07,24,10,24,14.90
2009,07,24,10,25,15.00
2009,07,24,10,26,15.00
2009,07,24,10,27,15.00
2009,07,24,10,28,15.20
2009,07,24,10,29,15.20
2009,07,24,10,30,15.20
2009,07,24,10,31,15.10
2009,07,24,10,32,15.10
2009,07,24,10,33,15.00
2009,07,24,10,34,15.00
2009,07,24,10,35,14.80
2009,07,24,10,36,14.70
2009,07,24,10,37,14.70
2009,07,24,10,38,14.60
2009,07,24,10,39,14.60
2009,07,24,10,40,14.60
2009,07,24,10,41,14.70
2009,07,24,10,42,14.80
2009,07,24,10,43,14.90
2009,07,24,10,44,15.00
2009,07,24,10,45,15.10
2009,07,24,10,46,15.20
2009,07,24,10,47,15.40
2009,07,24,10,48,15.60
2009,07,24,10,49,15.70
2009,07,24,10,50,15.80
2009,07,24,10,51,15.90
2009,07,24,10,52,16.00
2009,07,24,10,53,16.10
2009,07,24,10,54,16.20
2009,07,24,10,55,16.30
2009,07,24,10,56,16.40
2009,07,24,10,57,16.50
2009,07,24,10,58,16.40
2009,07,24,10,59,16.40
2009,07,24,11,00,16.40
2009,07,24,11,01,16.30
2009,07,24,11,02,16.20
2009,07,24,11,03,16.10
2009,07,24,11,04,16.00
2009,07,24,11,05,15.90
2009,07,24,11,06,15.80
2009,07,24,11,07,15.80
2009,07,24,11,08,15.80
2009,07,24,11,09,15.80
2009,07,24,11,10,15.70
2009,07,24,11,11,15.70
2009,07,24,11,12,15.70
2009,07,24,11,13,15.70
2009,07,24,11,14,15.70
2009,07,24,11,15,15.80
2009,07,24,11,16,15.80
2009,07,24,11,17,15.80
2009,07,24,11,18,15.70
2009,07,24,11,19,15.70
2009,07,24,11,20,15.70
2009,07,24,11,21,15.60
2009,07,24,11,22,15.60
2009,07,24,11,23,15.60
2009,07,24,11,24,15.80
2009,07,24,11,25,15.80
2009,07,24,11,26,15.80
2009,07,24,11,27,15.80
2009,07,24,11,28,15.90
2009,07,24,11,29,15.90
2009,07,24,11,30,15.70
2009,07,24,11,31,15.50
2009,07,24,11,32,15.40
2009,07,24,11,33,15.20
2009,07,24,11,34,15.10
2009,07,24,11,35,15.10
2009,07,24,11,36,15.00
2009,07,24,11,37,15.00
2009,07,24,11,38,15.00
2009,07,24,11,39,14.90
2009,07,24,11,40,14.80
2009,07,24,11,41,14.70
2009,07,24,11,42,14.80
2009,07,24,11,43,14.90
2009,07,24,11,44,14.90
2009,07,24,11,45,14.80
2009,07,24,11,46,14.90
2009,07,24,11,47,14.90
2009,07,24,11,48,14.90
2009,07,24,11,49,15.00
2009,07,24,11,50,15.00
2009,07,24,11,51,14.90
2009,07,24,11,52,15.00
2009,07,24,11,53,15.00
2009,07,24,11,54,15.00
2009,07,24,11,55,15.00
2009,07,24,11,56,15.00
2009,07,24,11,57,15.00
2009,07,24,11,58,15.00
2009,07,24,11,59,15.00
2009,07,24,12,00,15.00
2009,07,24,12,01,15.00
2009,07,24,12,02,15.00
2009,07,24,12,03,15.00
2009,07,24,12,04,15.00
2009,07,24,12,05,15.00
2009,07,24,12,06,15.00
2009,07,24,12,07,15.20
2009,07,24,12,08,15.40
2009,07,24,12,09,15.50
2009,07,24,12,10,15.70
2009,07,24,12,11,15.80
2009,07,24,12,12,15.80
2009,07,24,12,13,15.90
2009,07,24,12,14,15.90
2009,07,24,12,15,15.90
2009,07,24,12,16,15.90
2009,07,24,12,17,16.00
2009,07,24,12,18,16.10
2009,07,24,12,19,16.20
2009,07,24,12,20,16.30
2009,07,24,12,21,16.50
2009,07,24,12,22,16.60
2009,07,24,12,23,16.60
2009,07,24,12,24,16.50
2009,07,24,12,25,16.40
2009,07,24,12,26,16.30
2009,07,24,12,27,16.30
2009,07,24,12,28,16.30
2009,07,24,12,29,16.20
2009,07,24,12,30,16.10
2009,07,24,12,31,16.00
2009,07,24,12,32,16.00
2009,07,24,12,33,16.10
2009,07,24,12,34,16.00
2009,07,24,12,35,15.80
2009,07,24,12,36,15.80
2009,07,24,12,37,15.80
2009,07,24,12,38,15.60
2009,07,24,12,39,15.50
2009,07,24,12,40,15.50
2009,07,24,12,41,15.50
2009,07,24,12,42,15.50
2009,07,24,12,43,15.60
2009,07,24,12,44,15.60
2009,07,24,12,45,15.70
2009,07,24,12,46,15.70
2009,07,24,12,47,15.80
2009,07,24,12,48,15.90
2009,07,24,12,49,15.90
2009,07,24,12,50,16.00
2009,07,24,12,51,16.00
2009,07,24,12,52,16.00
2009,07,24,12,53,16.10
2009,07,24,12,54,16.00
2009,07,24,12,55,16.10
2009,07,24,12,56,16.10
2009,07,24,12,57,16.10
2009,07,24,12,58,16.30
2009,07,24,12,59,16.40
2009,07,24,13,00,16.40
2009,07,24,13,01,16.40
2009,07,24,13,02,16.50
2009,07,24,13,03,16.60
2009,07,24,13,04,16.50
2009,07,24,13,05,16.50
2009,07,24,13,06,16.50
2009,07,24,13,07,16.50
2009,07,24,13,08,16.30
2009,07,24,13,09,16.20
2009,07,24,13,10,16.00
2009,07,24,13,11,15.90
2009,07,24,13,12,15.80
2009,07,24,13,13,15.60
2009,07,24,13,14,15.50
2009,07,24,13,15,15.50
2009,07,24,13,16,15.70
2009,07,24,13,17,15.80
2009,07,24,13,18,15.90
2009,07,24,13,19,16.00
2009,07,24,13,20,16.00
2009,07,24,13,21,15.90
2009,07,24,13,22,16.00
2009,07,24,13,23,16.00
2009,07,24,13,24,15.90
2009,07,24,13,25,16.00
2009,07,24,13,26,16.00
2009,07,24,13,27,16.00
2009,07,24,13,28,16.10
2009,07,24,13,29,16.10
2009,07,24,13,30,16.20
2009,07,24,13,31,16.20
2009,07,24,13,32,16.20
2009,07,24,13,33,16.20
2009,07,24,13,34,16.30
2009,07,24,13,35,16.40
2009,07,24,13,36,16.60
2009,07,24,13,37,16.60
2009,07,24,13,38,16.70
2009,07,24,13,39,16.90
2009,07,24,13,40,16.90
2009,07,24,13,41,16.80
2009,07,24,13,42,16.80
2009,07,24,13,43,16.70
2009,07,24,13,44,16.80
2009,07,24,13,45,16.90
2009,07,24,13,46,16.90
2009,07,24,13,47,16.90
2009,07,24,13,48,16.90
2009,07,24,13,49,17.00
2009,07,24,13,50,17.10
2009,07,24,13,51,17.20
2009,07,24,13,52,17.30
2009,07,24,13,53,17.30
2009,07,24,13,54,17.10
2009,07,24,13,55,17.00
2009,07,24,13,56,16.90
2009,07,24,13,57,16.90
2009,07,24,13,58,16.70
2009,07,24,13,59,16.70
2009,07,24,14,00,16.60
2009,07,24,14,01,16.50
2009,07,24,14,02,16.40
2009,07,24,14,03,16.40
2009,07,24,14,04,16.40
2009,07,24,14,05,16.40
2009,07,24,14,06,16.50
2009,07,24,14,07,16.50
2009,07,24,14,08,16.60
2009,07,24,14,09,16.70
2009,07,24,14,10,16.80
2009,07,24,14,11,16.80
2009,07,24,14,12,16.80
2009,07,24,14,13,16.70
2009,07,24,14,14,16.60
2009,07,24,14,15,16.60
2009,07,24,14,16,16.60
2009,07,24,14,17,16.60
2009,07,24,14,18,16.60
2009,07,24,14,19,16.60
2009,07,24,14,20,16.60
2009,07,24,14,21,16.40
2009,07,24,14,22,16.30
2009,07,24,14,23,16.30
2009,07,24,14,24,16.30
2009,07,24,14,25,16.40
2009,07,24,14,26,16.40
2009,07,24,14,27,16.50
2009,07,24,14,28,16.40
2009,07,24,14,29,16.30
2009,07,24,14,30,16.20
2009,07,24,14,31,16.10
2009,07,24,14,32,16.20
2009,07,24,14,33,16.10
2009,07,24,14,34,16.10
2009,07,24,14,35,16.00
2009,07,24,14,36,15.90
2009,07,24,14,37,15.80
2009,07,24,14,38,15.80
2009,07,24,14,39,15.70
2009,07,24,14,40,15.70
2009,07,24,14,41,15.70
2009,07,24,14,42,15.70
2009,07,24,14,43,15.80
2009,07,24,14,44,16.00
2009,07,24,14,45,16.20
2009,07,24,14,46,16.30
2009,07,24,14,47,16.30
2009,07,24,14,48,16.30
2009,07,24,14,49,16.30
2009,07,24,14,50,16.30
2009,07,24,14,51,16.40
2009,07,24,14,52,16.60
2009,07,24,14,53,16.80
2009,07,24,14,54,16.80
2009,07,24,14,55,16.90
2009,07,24,14,56,17.00
2009,07,24,14,57,17.10
2009,07,24,14,58,17.00
2009,07,24,14,59,17.10
2009,07,24,15,00,17.20
2009,07,24,15,01,17.20
2009,07,24,15,02,17.30
2009,07,24,15,03,17.40
2009,07,24,15,04,17.30
2009,07,24,15,05,17.30
2009,07,24,15,06,17.20
2009,07,24,15,07,17.20
2009,07,24,15,08,17.20
2009,07,24,15,09,17.10
2009,07,24,15,10,17.10
2009,07,24,15,11,17.20
2009,07,24,15,12,17.30
2009,07,24,15,13,17.30
2009,07,24,15,14,17.50
2009,07,24,15,15,17.60
2009,07,24,15,16,17.70
2009,07,24,15,17,17.60
2009,07,24,15,18,17.50
2009,07,24,15,19,17.40
2009,07,24,15,20,17.50
2009,07,24,15,21,17.60
2009,07,24,15,22,17.70
2009,07,24,15,23,17.70
2009,07,24,15,24,17.60
2009,07,24,15,25,17.70
2009,07,24,15,26,17.80
2009,07,24,15,27,17.80
2009,07,24,15,28,17.80
2009,07,24,15,29,17.80
2009,07,24,15,30,17.80
2009,07,24,15,31,17.80
2009,07,24,15,32,17.90
2009,07,24,15,33,18.00
2009,07,24,15,34,18.10
2009,07,24,15,35,18.20
2009,07,24,15,36,18.30
2009,07,24,15,37,18.40
2009,07,24,15,38,18.40
2009,07,24,15,39,18.40
2009,07,24,15,40,18.40
2009,07,24,15,41,18.40
2009,07,24,15,42,18.40
2009,07,24,15,43,18.40
2009,07,24,15,44,18.40
2009,07,24,15,45,18.50
2009,07,24,15,46,18.60
2009,07,24,15,47,18.70
2009,07,24,15,48,18.80
2009,07,24,15,49,18.70
2009,07,24,15,50,18.70
2009,07,24,15,51,18.70
2009,07,24,15,52,18.70
2009,07,24,15,53,18.90
2009,07,24,15,54,19.00
2009,07,24,15,55,19.10
2009,07,24,15,56,19.20
2009,07,24,15,57,19.30
2009,07,24,15,58,19.40
2009,07,24,15,59,19.40
2009,07,24,16,00,19.50
2009,07,24,16,01,19.50
2009,07,24,16,02,19.60
2009,07,24,16,03,19.70
2009,07,24,16,04,19.80
2009,07,24,16,05,19.90
2009,07,24,16,06,19.90
2009,07,24,16,07,20.00
2009,07,24,16,08,20.10
2009,07,24,16,09,20.20
2009,07,24,16,10,20.30
2009,07,24,16,11,20.40
2009,07,24,16,12,20.50
2009,07,24,16,13,20.60
2009,07,24,16,14,20.80
2009,07,24,16,15,20.90
2009,07,24,16,16,21.00
2009,07,24,16,17,21.10
2009,07,24,16,18,21.20
2009,07,24,16,19,21.20
2009,07,24,16,20,21.20
2009,07,24,16,21,21.20
2009,07,24,16,22,21.10
2009,07,24,16,23,21.10
2009,07,24,16,24,21.20
2009,07,24,16,25,21.30
2009,07,24,16,26,21.40
2009,07,24,16,27,21.40
2009,07,24,16,28,21.50
2009,07,24,16,29,21.50
2009,07,24,16,30,21.50
2009,07,24,16,31,21.50
2009,07,24,16,32,21.40
2009,07,24,16,33,21.20
2009,07,24,16,34,20.90
2009,07,24,16,35,20.80
2009,07,24,16,36,20.70
2009,07,24,16,37,20.60
2009,07,24,16,38,20.50
2009,07,24,16,39,20.30
2009,07,24,16,40,20.20
2009,07,24,16,41,20.10
2009,07,24,16,42,20.10
2009,07,24,16,43,20.10
2009,07,24,16,44,20.00
2009,07,24,16,45,19.90
2009,07,24,16,46,19.70
2009,07,24,16,47,19.70
2009,07,24,16,48,19.70
2009,07,24,16,49,19.70
2009,07,24,16,50,19.70
2009,07,24,16,51,19.80
2009,07,24,16,52,19.80
2009,07,24,16,53,19.80
2009,07,24,16,54,19.90
2009,07,24,16,55,20.00
2009,07,24,16,56,20.00
2009,07,24,16,57,20.00
2009,07,24,16,58,19.90
2009,07,24,16,59,19.90
2009,07,24,17,00,19.90
2009,07,24,17,01,19.90
2009,07,24,17,02,19.90
2009,07,24,17,03,19.80
2009,07,24,17,04,19.60
2009,07,24,17,05,19.50
2009,07,24,17,06,19.50
2009,07,24,17,07,19.60
2009,07,24,17,08,19.60
2009,07,24,17,09,19.70
2009,07,24,17,10,19.70
2009,07,24,17,11,19.70
2009,07,24,17,12,19.70
2009,07,24,17,13,19.70
2009,07,24,17,14,19.80
2009,07,24,17,15,19.90
2009,07,24,17,16,19.80
2009,07,24,17,17,19.80
2009,07,24,17,18,19.80
2009,07,24,17,19,19.90